Вернуться в каталог

LEMUR-2 JULIA-JOEL

АктивенНаукаSSO
NORAD 68476·PAYLOAD·🇱🇺 Luxembourg

Запущен Mar 30, 2026 с Vandenberg Space Force Base

Loading…

Ближайшие Пролёты (ближайшие 24 часа)

TLE

СвежийSource: Space-Track

Эпоха: Sep 14, 2026, 08:21 UTC

1 68476U 26067BN  26257.34792466  .00002645  00000-0  25814-3 0  9995
2 68476  97.7655 214.4491 0002067  16.2303 343.8983 14.93275192 25038

Отслеживайте LEMUR-2 JULIA-JOEL в реальном времени с AllMySat

Download on the App Store